Voltar ao catálogo

STARLINK-4763

AtivoComunicaçõesVLEO
NORAD 53805·PAYLOAD·🇺🇸 United States

Lançado Sep 11, 2022 de Cape Canaveral Space Force Station

Loading…

Próximas Passagens (próximas 24 horas)

TLE

AtualizadoSource: CelesTrak SupGP

Época: Sep 14, 2026, 22:01 UTC

1 53805C 22111AJ  26257.91784722  .00008879  00000+0  28561-3 0  2573
2 53805  53.1572 107.9420 0001259  84.4365 207.8770 15.31688199    19

Acompanhe STARLINK-4763 em tempo real com AllMySat

Download on the App Store